N18367 KILM-KRDU

Flight info

Callsign N18367
Flight time 0h 54m
Altitude 7500
Route DCT
Aircraft BE36/L-VGD/C

Departure

Time 2026-05-07 00:56
Airport Wilmington International Airport (KILM)

Arrival

Time 2026-05-07 01:50
Airport Raleigh-Durham International Airport (KRDU)
Time Latitude Longitude Altitude Speed Heading
2026-05-07 00:45 34.27068 -77.90942 26 ft 0 kts 303°
2026-05-07 00:46 34.27098 -77.90916 26 ft 16 kts 80°
2026-05-07 00:47 34.27098 -77.90755 26 ft 17 kts 84°
2026-05-07 00:47 34.27109 -77.90655 26 ft 4 kts 132°
2026-05-07 00:47 34.27051 -77.90636 26 ft 11 kts 166°
2026-05-07 00:47 34.26959 -77.90594 26 ft 16 kts 160°
2026-05-07 00:48 34.26848 -77.90540 26 ft 10 kts 150°
2026-05-07 00:48 34.26837 -77.90546 26 ft 8 kts 343°
2026-05-07 00:48 34.26931 -77.90585 26 ft 17 kts 339°
2026-05-07 00:48 34.27054 -77.90640 26 ft 22 kts 335°
2026-05-07 00:49 34.27193 -77.90743 26 ft 27 kts 327°
2026-05-07 00:49 34.27334 -77.90837 26 ft 21 kts 314°
2026-05-07 00:49 34.27482 -77.90911 26 ft 24 kts 343°
2026-05-07 00:49 34.27669 -77.90960 26 ft 29 kts 349°
2026-05-07 00:50 34.27851 -77.91004 26 ft 24 kts 352°
2026-05-07 00:50 34.28040 -77.91053 26 ft 29 kts 358°
2026-05-07 00:50 34.28204 -77.91094 26 ft 25 kts 336°
2026-05-07 00:50 34.28280 -77.91075 26 ft 0 kts 67°
2026-05-07 00:54 34.28283 -77.91022 26 ft 13 kts 114°
2026-05-07 00:55 34.28161 -77.90944 26 ft 38 kts 161°
2026-05-07 00:55 34.27734 -77.90734 72 ft 79 kts 163°
2026-05-07 00:55 34.27228 -77.90437 243 ft 82 kts 157°
2026-05-07 00:55 34.26750 -77.90039 461 ft 90 kts 142°
2026-05-07 00:56 34.26379 -77.89336 746 ft 106 kts 123°
2026-05-07 00:56 34.26135 -77.88487 1065 ft 116 kts 104°
2026-05-07 00:56 34.26349 -77.87509 1331 ft 139 kts 51°
2026-05-07 00:56 34.27098 -77.86777 1654 ft 143 kts 19°
2026-05-07 00:57 34.28007 -77.86494 2093 ft 130 kts 352°
2026-05-07 00:57 34.28987 -77.86518 2286 ft 141 kts 345°
2026-05-07 00:57 34.29937 -77.86675 2629 ft 138 kts 338°
2026-05-07 00:57 34.30936 -77.86873 2788 ft 152 kts 342°
2026-05-07 00:58 34.31987 -77.87035 3054 ft 150 kts 347°
2026-05-07 00:58 34.33000 -77.87062 3281 ft 142 kts 351°
2026-05-07 00:58 34.33970 -77.87054 3452 ft 137 kts 350°
2026-05-07 00:58 34.34919 -77.86933 3585 ft 138 kts 357°
2026-05-07 00:59 34.36839 -77.86731 3945 ft 137 kts 352°
2026-05-07 00:59 34.37803 -77.86636 4140 ft 139 kts 355°
2026-05-07 00:59 34.38758 -77.86496 4374 ft 140 kts 357°
2026-05-07 01:00 34.39736 -77.86362 4515 ft 142 kts 349°
2026-05-07 01:00 34.40721 -77.86351 4691 ft 142 kts 349°
2026-05-07 01:00 34.41703 -77.86330 4884 ft 141 kts 349°
2026-05-07 01:00 34.42677 -77.86359 5098 ft 135 kts 341°
2026-05-07 01:01 34.43181 -77.87019 4195 ft 181 kts 233°
2026-05-07 01:01 34.41881 -77.86899 3481 ft 180 kts 183°
2026-05-07 01:01 34.40811 -77.86803 3795 ft 136 kts 183°
2026-05-07 01:01 34.39940 -77.86649 4086 ft 125 kts 176°
2026-05-07 01:02 34.39048 -77.86417 4130 ft 138 kts 173°
2026-05-07 01:02 34.38290 -77.86673 4326 ft 116 kts 246°
2026-05-07 01:02 34.38516 -77.87573 4493 ft 132 kts 309°
2026-05-07 01:02 34.39519 -77.87917 4234 ft 174 kts 347°
2026-05-07 01:03 34.40677 -77.88058 4554 ft 157 kts 349°
2026-05-07 01:03 34.41743 -77.88013 4784 ft 151 kts 348°
2026-05-07 01:03 34.42686 -77.88145 5226 ft 127 kts 338°
2026-05-07 01:03 34.43443 -77.88568 5448 ft 113 kts 301°
2026-05-07 01:04 34.43783 -77.89406 5551 ft 115 kts 282°
2026-05-07 01:04 34.44149 -77.90317 5685 ft 122 kts 297°
2026-05-07 01:04 34.44691 -77.91225 5604 ft 140 kts 302°
2026-05-07 01:04 34.45362 -77.91990 5982 ft 125 kts 314°
2026-05-07 01:05 34.46134 -77.92665 5939 ft 139 kts 315°
2026-05-07 01:05 34.46884 -77.93304 6179 ft 122 kts 315°
2026-05-07 01:05 34.47537 -77.93852 6335 ft 115 kts 315°
2026-05-07 01:05 34.48217 -77.94441 6371 ft 125 kts 315°
2026-05-07 01:06 34.48965 -77.95081 6369 ft 135 kts 315°
2026-05-07 01:06 34.49752 -77.95750 6366 ft 138 kts 317°
2026-05-07 01:06 34.50471 -77.96345 6363 ft 121 kts 315°
2026-05-07 01:06 34.51179 -77.96947 6366 ft 127 kts 315°
2026-05-07 01:07 34.51924 -77.97578 6365 ft 132 kts 315°
2026-05-07 01:07 34.52674 -77.98211 6356 ft 123 kts 316°
2026-05-07 01:07 34.53320 -77.98743 6325 ft 100 kts 314°
2026-05-07 01:07 34.53902 -77.99234 6363 ft 104 kts 313°
2026-05-07 01:08 34.54505 -77.99751 6368 ft 112 kts 314°
2026-05-07 01:08 34.55172 -78.00320 6376 ft 120 kts 315°
2026-05-07 01:08 34.55879 -78.00919 6373 ft 127 kts 315°
2026-05-07 01:08 34.56618 -78.01543 6371 ft 133 kts 316°
2026-05-07 01:09 34.57395 -78.02193 6368 ft 136 kts 316°
2026-05-07 01:09 34.58189 -78.02858 6366 ft 138 kts 316°
2026-05-07 01:09 34.58978 -78.03522 6358 ft 140 kts 316°
2026-05-07 01:09 34.59788 -78.04205 6356 ft 141 kts 316°
2026-05-07 01:10 34.60602 -78.04887 6357 ft 142 kts 316°
2026-05-07 01:10 34.61408 -78.05564 6356 ft 142 kts 317°
2026-05-07 01:10 34.62226 -78.06254 6350 ft 143 kts 316°
2026-05-07 01:10 34.63046 -78.06948 6353 ft 143 kts 316°
2026-05-07 01:11 34.63858 -78.07631 6357 ft 142 kts 316°
2026-05-07 01:11 34.64643 -78.08286 6331 ft 116 kts 316°
2026-05-07 01:11 34.65331 -78.08873 6362 ft 130 kts 315°
2026-05-07 01:11 34.66114 -78.09544 6372 ft 146 kts 316°
2026-05-07 01:12 34.66978 -78.10279 6359 ft 156 kts 317°
2026-05-07 01:12 34.67905 -78.11060 6364 ft 163 kts 318°
2026-05-07 01:12 34.68847 -78.11851 6361 ft 168 kts 317°
2026-05-07 01:12 34.69815 -78.12668 6366 ft 170 kts 318°
2026-05-07 01:13 34.70794 -78.13493 6362 ft 172 kts 318°
2026-05-07 01:13 34.71777 -78.14357 6361 ft 171 kts 310°
2026-05-07 01:13 34.72161 -78.15629 6370 ft 164 kts 270°
2026-05-07 01:13 34.72242 -78.17005 6349 ft 158 kts 275°
2026-05-07 01:14 34.72404 -78.18292 6348 ft 151 kts 278°
2026-05-07 01:14 34.72626 -78.19527 6347 ft 149 kts 281°
2026-05-07 01:14 34.72890 -78.20731 6356 ft 148 kts 282°
2026-05-07 01:14 34.73192 -78.21925 6360 ft 150 kts 284°
2026-05-07 01:15 34.73531 -78.23129 6362 ft 151 kts 286°
2026-05-07 01:15 34.73896 -78.24327 6360 ft 152 kts 287°
2026-05-07 01:15 34.74289 -78.25527 6361 ft 153 kts 288°
2026-05-07 01:15 34.74697 -78.26722 6356 ft 153 kts 289°
2026-05-07 01:16 34.75120 -78.27924 6354 ft 153 kts 289°
2026-05-07 01:16 34.75546 -78.29102 6354 ft 153 kts 290°
2026-05-07 01:16 34.75989 -78.30295 6358 ft 154 kts 289°
2026-05-07 01:16 34.76434 -78.31480 6356 ft 154 kts 289°
2026-05-07 01:17 34.76880 -78.32661 6357 ft 154 kts 290°
2026-05-07 01:17 34.77329 -78.33841 6355 ft 154 kts 290°
2026-05-07 01:17 34.77788 -78.35028 6351 ft 154 kts 290°
2026-05-07 01:17 34.78249 -78.36213 6353 ft 154 kts 289°
2026-05-07 01:18 34.78709 -78.37392 6352 ft 154 kts 290°
2026-05-07 01:18 34.79169 -78.38560 6343 ft 154 kts 290°
2026-05-07 01:18 34.79627 -78.39729 6343 ft 154 kts 290°
2026-05-07 01:18 34.80096 -78.40913 6341 ft 153 kts 290°
2026-05-07 01:19 34.80556 -78.42079 6344 ft 154 kts 290°
2026-05-07 01:19 34.81021 -78.43248 6349 ft 153 kts 290°
2026-05-07 01:19 34.81485 -78.44417 6363 ft 153 kts 290°
2026-05-07 01:19 34.81945 -78.45574 6383 ft 152 kts 290°
2026-05-07 01:20 34.82407 -78.46735 6389 ft 152 kts 290°
2026-05-07 01:20 34.82869 -78.47896 6384 ft 154 kts 290°
2026-05-07 01:20 34.83337 -78.49078 6377 ft 154 kts 291°
2026-05-07 01:20 34.83800 -78.50239 6377 ft 154 kts 291°
2026-05-07 01:21 34.84273 -78.51430 6378 ft 154 kts 290°
2026-05-07 01:21 34.84698 -78.52499 6379 ft 153 kts 291°
2026-05-07 01:21 34.85163 -78.53668 6374 ft 153 kts 291°
2026-05-07 01:21 34.85627 -78.54829 6378 ft 153 kts 290°
2026-05-07 01:22 34.86084 -78.55997 6371 ft 153 kts 290°
2026-05-07 01:22 34.86830 -78.56939 6358 ft 166 kts 327°
2026-05-07 01:22 34.87985 -78.57261 6376 ft 171 kts 340°
2026-05-07 01:22 34.89173 -78.57539 6376 ft 171 kts 340°
2026-05-07 01:23 34.90346 -78.57811 6380 ft 172 kts 340°
2026-05-07 01:23 34.91523 -78.58086 6374 ft 172 kts 339°
2026-05-07 01:23 34.92679 -78.58462 6374 ft 171 kts 335°
2026-05-07 01:23 34.93823 -78.58836 6363 ft 171 kts 335°
2026-05-07 01:24 34.94977 -78.59213 6377 ft 171 kts 336°
2026-05-07 01:24 34.96126 -78.59587 6373 ft 170 kts 336°
2026-05-07 01:24 34.97274 -78.59959 6367 ft 170 kts 335°
2026-05-07 01:24 34.98405 -78.60323 6370 ft 169 kts 335°
2026-05-07 01:25 34.99558 -78.60697 6364 ft 169 kts 335°
2026-05-07 01:25 35.00700 -78.61072 6365 ft 169 kts 336°
2026-05-07 01:25 35.01833 -78.61436 6367 ft 169 kts 335°
2026-05-07 01:25 35.02974 -78.61808 6379 ft 170 kts 335°
2026-05-07 01:26 35.04127 -78.62185 6378 ft 171 kts 335°
2026-05-07 01:26 35.05290 -78.62561 6366 ft 172 kts 336°
2026-05-07 01:26 35.06441 -78.62934 6359 ft 171 kts 336°
2026-05-07 01:26 35.07591 -78.63306 6365 ft 171 kts 335°
2026-05-07 01:27 35.08754 -78.63683 6371 ft 172 kts 335°
2026-05-07 01:27 35.09903 -78.64059 6370 ft 172 kts 336°
2026-05-07 01:27 35.11054 -78.64433 6358 ft 172 kts 335°
2026-05-07 01:27 35.12226 -78.64815 6357 ft 172 kts 336°
2026-05-07 01:28 35.13377 -78.65184 6360 ft 170 kts 334°
2026-05-07 01:28 35.14521 -78.65559 6361 ft 170 kts 334°
2026-05-07 01:28 35.15656 -78.65932 6366 ft 169 kts 335°
2026-05-07 01:28 35.16790 -78.66299 6363 ft 169 kts 334°
2026-05-07 01:29 35.17939 -78.66676 6371 ft 169 kts 335°
2026-05-07 01:29 35.19086 -78.67047 6372 ft 170 kts 334°
2026-05-07 01:29 35.20221 -78.67419 6371 ft 170 kts 334°
2026-05-07 01:29 35.21373 -78.67791 6372 ft 170 kts 335°
2026-05-07 01:30 35.22509 -78.68166 6372 ft 171 kts 335°
2026-05-07 01:30 35.23670 -78.68543 6376 ft 171 kts 335°
2026-05-07 01:30 35.24819 -78.68917 6374 ft 171 kts 334°
2026-05-07 01:30 35.25979 -78.69297 6375 ft 172 kts 335°
2026-05-07 01:31 35.27128 -78.69671 6379 ft 172 kts 334°
2026-05-07 01:31 35.28297 -78.70056 6379 ft 172 kts 335°
2026-05-07 01:31 35.29450 -78.70429 6379 ft 172 kts 334°
2026-05-07 01:31 35.30619 -78.70814 6381 ft 172 kts 335°
2026-05-07 01:32 35.31769 -78.71186 6385 ft 172 kts 335°
2026-05-07 01:32 35.32934 -78.71571 6381 ft 173 kts 335°
2026-05-07 01:32 35.34098 -78.71948 6383 ft 172 kts 334°
2026-05-07 01:32 35.35260 -78.72328 6380 ft 173 kts 334°
2026-05-07 01:33 35.36429 -78.72710 6386 ft 172 kts 334°
2026-05-07 01:33 35.37589 -78.73094 6382 ft 173 kts 335°
2026-05-07 01:33 35.38847 -78.73104 6379 ft 182 kts 354°
2026-05-07 01:33 35.40115 -78.72953 6383 ft 183 kts 355°
2026-05-07 01:34 35.41387 -78.72784 6382 ft 182 kts 355°
2026-05-07 01:34 35.42639 -78.72620 6382 ft 183 kts 355°
2026-05-07 01:34 35.43909 -78.72453 6383 ft 182 kts 355°
2026-05-07 01:34 35.45179 -78.72282 6382 ft 182 kts 355°
2026-05-07 01:35 35.46440 -78.72115 6389 ft 183 kts 355°
2026-05-07 01:35 35.47707 -78.71950 6387 ft 183 kts 356°
2026-05-07 01:35 35.48995 -78.71774 6386 ft 185 kts 355°
2026-05-07 01:35 35.50274 -78.71606 6377 ft 184 kts 356°
2026-05-07 01:36 35.51541 -78.71436 6377 ft 183 kts 355°
2026-05-07 01:36 35.52824 -78.71265 6382 ft 184 kts 355°
2026-05-07 01:36 35.54096 -78.71099 6372 ft 184 kts 356°
2026-05-07 01:36 35.55368 -78.70928 6373 ft 184 kts 356°
2026-05-07 01:37 35.56652 -78.70756 6372 ft 184 kts 355°
2026-05-07 01:37 35.57932 -78.70583 6369 ft 185 kts 356°
2026-05-07 01:37 35.59204 -78.70412 6373 ft 185 kts 356°
2026-05-07 01:37 35.60489 -78.70238 6373 ft 185 kts 356°
2026-05-07 01:38 35.61777 -78.70074 6374 ft 183 kts 352°
2026-05-07 01:38 35.62978 -78.70361 6304 ft 178 kts 335°
2026-05-07 01:38 35.64195 -78.70764 6195 ft 182 kts 334°
2026-05-07 01:38 35.65431 -78.71178 6078 ft 184 kts 335°
2026-05-07 01:39 35.66678 -78.71596 5956 ft 187 kts 334°
2026-05-07 01:39 35.67935 -78.72021 5831 ft 188 kts 335°
2026-05-07 01:39 35.69201 -78.72452 5713 ft 190 kts 335°
2026-05-07 01:39 35.70481 -78.72884 5594 ft 191 kts 335°
2026-05-07 01:40 35.71772 -78.73319 5475 ft 191 kts 335°
2026-05-07 01:40 35.72957 -78.73911 5335 ft 174 kts 311°
2026-05-07 01:40 35.73413 -78.75116 5202 ft 146 kts 266°
2026-05-07 01:40 35.73304 -78.76293 5086 ft 136 kts 260°
2026-05-07 01:41 35.72964 -78.77325 4952 ft 132 kts 226°
2026-05-07 01:41 35.72071 -78.77637 4837 ft 144 kts 182°
2026-05-07 01:41 35.71109 -78.77270 4727 ft 146 kts 171°
2026-05-07 01:41 35.70140 -78.76863 4604 ft 144 kts 171°
2026-05-07 01:42 35.69201 -78.76477 4486 ft 143 kts 171°
2026-05-07 01:42 35.68327 -78.75832 4363 ft 157 kts 138°
2026-05-07 01:42 35.67962 -78.74500 4265 ft 178 kts 92°
2026-05-07 01:42 35.68382 -78.73044 4164 ft 187 kts 52°
2026-05-07 01:43 35.69130 -78.71705 4050 ft 192 kts 53°
2026-05-07 01:43 35.69908 -78.70343 3943 ft 196 kts 52°
2026-05-07 01:43 35.70698 -78.68969 3825 ft 198 kts 52°
2026-05-07 01:43 35.71479 -78.67594 3705 ft 194 kts 53°
2026-05-07 01:44 35.72255 -78.66239 3581 ft 189 kts 52°
2026-05-07 01:44 35.73074 -78.65005 3382 ft 188 kts 42°
2026-05-07 01:44 35.74135 -78.64027 3081 ft 190 kts 23°
2026-05-07 01:44 35.75326 -78.63436 2945 ft 177 kts
2026-05-07 01:45 35.76503 -78.63361 2732 ft 167 kts 341°
2026-05-07 01:45 35.77507 -78.63866 2647 ft 151 kts 319°
2026-05-07 01:45 35.78359 -78.64620 2506 ft 147 kts 310°
2026-05-07 01:45 35.79098 -78.65523 2234 ft 152 kts 303°
2026-05-07 01:46 35.79769 -78.66472 2048 ft 129 kts 297°
2026-05-07 01:46 35.80241 -78.67281 2152 ft 104 kts 296°
2026-05-07 01:46 35.80674 -78.67932 2197 ft 96 kts 295°
2026-05-07 01:46 35.81067 -78.68591 2229 ft 88 kts 284°
2026-05-07 01:47 35.81263 -78.69433 1532 ft 121 kts 265°
2026-05-07 01:47 35.81527 -78.70307 1315 ft 111 kts 296°
2026-05-07 01:47 35.81955 -78.71025 1233 ft 100 kts 300°
2026-05-07 01:47 35.82404 -78.71674 1275 ft 92 kts 301°
2026-05-07 01:48 35.82830 -78.72237 1333 ft 95 kts 305°
2026-05-07 01:48 35.83301 -78.72813 1357 ft 95 kts 306°
2026-05-07 01:48 35.83781 -78.73403 1317 ft 98 kts 303°
2026-05-07 01:48 35.84271 -78.74045 1205 ft 104 kts 308°
2026-05-07 01:49 35.84777 -78.74700 1072 ft 111 kts 305°
2026-05-07 01:49 35.85298 -78.75407 955 ft 110 kts 307°
2026-05-07 01:49 35.85799 -78.76076 868 ft 104 kts 306°
2026-05-07 01:49 35.86237 -78.76685 708 ft 83 kts 308°
2026-05-07 01:50 35.86617 -78.77187 558 ft 82 kts 310°
2026-05-07 01:50 35.87001 -78.77661 430 ft 72 kts 313°
2026-05-07 01:50 35.87298 -78.78033 416 ft 49 kts 314°
2026-05-07 01:50 35.87477 -78.78224 423 ft 13 kts 346°
2026-05-07 01:51 35.87530 -78.78224 424 ft 11 kts 48°
2026-05-07 01:51 35.87540 -78.78212 424 ft 0 kts 47°
2026-05-07 01:51 35.87543 -78.78209 424 ft 6 kts 34°
2026-05-07 01:52 35.87579 -78.78220 424 ft 0 kts 322°
2026-05-07 01:52 35.87637 -78.78285 425 ft 21 kts 304°
2026-05-07 01:52 35.87705 -78.78369 425 ft 0 kts 326°
2026-05-07 01:53 35.87746 -78.78403 425 ft 14 kts 348°
2026-05-07 01:53 35.87871 -78.78288 424 ft 27 kts 45°
2026-05-07 01:53 35.87978 -78.78237 421 ft 7 kts 329°